TimeEDT,TemperatureF,Dew PointF,Humidity,Sea Level PressureIn,VisibilityMPH,Wind Direction,Wind SpeedMPH,Gust SpeedMPH,PrecipitationIn,Events,Conditions,WindDirDegrees,DateUTC
12:53 AM,52.0,43.0,71,30.04,10.0,North,10.4,18.4,N/A,,Clear,10,2013-09-24 04:53:00
1:53 AM,51.1,41.0,68,30.05,10.0,North,11.5,-,N/A,,Clear,10,2013-09-24 05:53:00
2:53 AM,51.1,39.9,66,30.04,10.0,NNE,11.5,-,N/A,,Clear,20,2013-09-24 06:53:00
3:53 AM,50.0,39.9,68,30.04,10.0,North,11.5,-,N/A,,Clear,360,2013-09-24 07:53:00
4:53 AM,48.9,39.0,69,30.04,10.0,North,11.5,-,N/A,,Clear,10,2013-09-24 08:53:00
5:53 AM,48.9,39.0,69,30.05,10.0,North,6.9,-,N/A,,Clear,350,2013-09-24 09:53:00
6:53 AM,48.0,39.9,74,30.05,10.0,NW,3.5,-,N/A,,Clear,320,2013-09-24 10:53:00
7:53 AM,48.9,41.0,74,30.05,10.0,WNW,3.5,-,N/A,,Clear,290,2013-09-24 11:53:00
8:53 AM,52.0,41.0,66,30.03,10.0,WNW,5.8,-,N/A,,Clear,290,2013-09-24 12:53:00
9:53 AM,55.9,43.0,62,30.02,10.0,WNW,6.9,-,N/A,,Clear,300,2013-09-24 13:53:00
10:53 AM,59.0,42.1,53,29.99,10.0,WSW,9.2,-,N/A,,Clear,250,2013-09-24 14:53:00
11:53 AM,61.0,39.0,44,29.97,10.0,NW,9.2,-,N/A,,Clear,310,2013-09-24 15:53:00
12:53 PM,64.9,36.0,34,29.95,10.0,NW,8.1,-,N/A,,Clear,310,2013-09-24 16:53:00
1:53 PM,66.0,39.0,37,29.92,10.0,WNW,8.1,-,N/A,,Clear,300,2013-09-24 17:53:00
2:53 PM,68.0,39.9,36,29.90,10.0,WNW,9.2,17.3,N/A,,Clear,300,2013-09-24 18:53:00
3:53 PM,70.0,39.0,32,29.89,10.0,NNW,8.1,19.6,N/A,,Clear,330,2013-09-24 19:53:00
4:53 PM,71.1,41.0,34,29.88,10.0,NNW,6.9,-,N/A,,Clear,330,2013-09-24 20:53:00
5:53 PM,70.0,42.1,36,29.88,10.0,WNW,5.8,-,N/A,,Clear,300,2013-09-24 21:53:00
6:53 PM,66.9,44.1,44,29.87,10.0,West,3.5,-,N/A,,Clear,280,2013-09-24 22:53:00
7:53 PM,63.0,45.0,52,29.88,10.0,Calm,Calm,-,N/A,,Clear,0,2013-09-24 23:53:00
8:53 PM,63.0,45.0,52,29.89,10.0,Calm,Calm,-,N/A,,Clear,0,2013-09-25 00:53:00
9:53 PM,60.1,46.0,60,29.92,10.0,North,5.8,-,N/A,,Clear,350,2013-09-25 01:53:00
10:53 PM,57.0,48.0,72,29.93,10.0,NNE,5.8,-,N/A,,Clear,20,2013-09-25 02:53:00
11:53 PM,55.9,48.0,75,29.94,10.0,North,4.6,-,N/A,,Clear,10,2013-09-25 03:53:00